DIWATA 2B

Satellite information

Favourite Embed

Satellite Type and Status

PAYLOADIN ORBIT

Key statistics

Satellite DIWATA 2B at a glance.

Uptime

2557

Days in orbit

Revolutions

≈ 15.0

Per day

Orbit

SSO

Sun Synchronous Orbit

Inclination

98.1

Latest

Satellite identification and parameters

Extended collection of information and parameters for DIWATA 2B.

Object identification

Identified? True

Debris? False

Object name: DIWATA 2B

International designator: 2018-084H

Object number (NORAD): 43678

Object ID (CCSDS): 43678

Country: REPUBLIC OF PHILIPPINES (RP)

Current information (Y/N): Y

RCS size: MEDIUM

Orbital parameters

Period: 96.057 minutes

Inclination: 98.1103 deg

SMA: 6947.773 km

Apoapsis: 575.081 km

Periapsis: 564.195 km

RAAN: 122.5533 deg

Eccentricy: 0.00078343

Argument of periapsis: 162.056 deg

Mean anomaly: 198.094 deg

Mean motion: 14.99112971 rev/day

Mean motion (dot): 0.00004084 rev/day2

B* drag term: 0.00034112511 1/REarth

Two-line elements (TLE)

Creation date: Oct. 28, 2025, 2:18 a.m.

Reference frame: TEME

Reference center: EARTH

Epoch: Oct. 27, 2025, 10:26 p.m. UTC

TLE line 0: 0 DIWATA 2B

TLE line 1: 1 43678U 18084H 25300.93502639 .00004084 00000-0 34113-3 0 9997

TLE line 2: 2 43678 98.1103 122.5533 0007834 162.0560 198.0940 14.99112971381406

Live tracking on map

Real-time ground track for satellite DIWATA 2B.

In-orbit conjunctions

There are no conjunctions computed for DIWATA 2B, at the moment. Check back to stay up to date, as we update our databases every day.

Go to all conjunctions

Associated space launch

KhalifaSat is an Earth observation satellite for UAE. KhalifaSat will provide high-resolution imagery of Earth to be used for various purposes, including urban planning, change monitoring, area classification, monitoring environmental change and aiding relief efforts for natural disasters. GOSAT 2 (Greenhouse gases Observing SATellite 2) is a Japanese satellite dedicated to greenhouse gas measurement from space. It's a follow on to the GOSAT mission and includes such improvements as an ability to gather more precise data and monitor carbon monoxide concentrations.

DIWATA 2B was lifted into orbit during the mission ‘H-IIA 202 | KhalifaSat & GOSAT-2’, on board a H-IIA space rocket.

The launch took place on Oct. 29, 2018, 4:08 a.m. from Yoshinobu Launch Complex LP-1.

For more information about the launch, click the button.

Launch to space H-IIA 202 | KhalifaSat & GOSAT-2
H-IIA 202 | KhalifaSat & GOSAT-2

Agency: N/A

Status: Launch Successful

Launch date: Oct. 29, 2018, 4:08 a.m. UTC

Rocket: H-IIA

Launch pad: Yoshinobu Launch Complex LP-1

Location: Tanegashima Space Center, Japan

...

Latest news about this satellite

News about space launch
Japan Launches UAE's KhalifaSat and Climate-Monitoring Satellite Into Orbit


Newsletter sign-up

Weekly statistics, charts and insights to help you stay on top of the space industry.